sat.trackr.live / text

‹ back to catalog

ONEWEB-0164

NORAD 48063 · 2021-025X

PAYLOAD ACTIVE UNKNOWN

§ Identity

Operator
Country
UK
Launch date
2021-03-25
Launch site
VOSTO
Launch vehicle
Mass (kg)
RCS (m²)

Purposes: comms

External: N2YO · Heavens-Above · Gunter

§ Orbital elements

Epoch: 2026-05-25T00:20:38.033376Z

Period
109.63 min
Inclination
87.8950°
Eccentricity
0.0001800
Mean motion
13.13468878 rev/d
Perigee alt
1,208.4 km
Apogee alt
1,211.1 km
Semi-major
7,587.9 km
B*
5.1080e-4
RAAN
324.8354°
Arg perigee
89.1438°
Mean anomaly
270.9897°
Rev number
25,054

§ Raw data

ONEWEB-01641 48063U 21025X   26145.01432909  .00000199  00000+0  51080-3 0  99922 48063  87.8950 324.8354 0001800  89.1438 270.9897 13.13468878250548

JSON: /api/v1/satellites/48063 · /tle

For live sub-satellite position, see the globe view (requires WebGL).

§ Visibility from observer

Set your observer location to see the next 7 days of passes ≥ 10°. The values pass through the URL so the page stays shareable.

No JS? Fill the form by hand. The geolocation button needs JavaScript.